Time,TemperatureF,DewpointF,PressureIn,WindDirection,WindDirectionDegrees,WindSpeedMPH,WindSpeedGustMPH,Humidity,HourlyPrecipIn,Conditions,Clouds,dailyrainin,SoftwareType,DateUTC
2013-02-08 00:03:00,33.9,27.0,29.98,East,92,0.0,9.0,75,0.00,,,0.00,weatherlink.com 1.10,2013-02-08 05:03:00,
2013-02-08 00:19:00,33.9,27.0,29.98,SE,143,0.0,6.0,75,0.00,,,0.00,weatherlink.com 1.10,2013-02-08 05:19:00,
2013-02-08 00:33:00,34.0,27.0,29.98,East,81,5.0,5.0,76,0.00,,,0.00,weatherlink.com 1.10,2013-02-08 05:33:00,
2013-02-08 00:49:00,34.1,27.0,29.97,East,101,4.0,7.0,76,0.00,,,0.00,weatherlink.com 1.10,2013-02-08 05:49:00,
2013-02-08 01:03:00,34.0,27.0,29.96,ESE,112,0.0,5.0,76,0.00,,,0.00,weatherlink.com 1.10,2013-02-08 06:03:00,
2013-02-08 01:18:00,33.9,27.0,29.96,East,101,0.0,6.0,77,0.00,,,0.00,weatherlink.com 1.10,2013-02-08 06:18:00,
2013-02-08 01:33:00,33.9,27.0,29.95,East,96,3.0,5.0,77,0.00,,,0.00,weatherlink.com 1.10,2013-02-08 06:33:00,
2013-02-08 01:48:00,34.1,28.0,29.95,East,96,3.0,6.0,78,0.00,,,0.00,weatherlink.com 1.10,2013-02-08 06:48:00,
2013-02-08 02:04:00,34.1,28.0,29.94,SE,145,0.0,5.0,78,0.00,,,0.00,weatherlink.com 1.10,2013-02-08 07:04:00,
2013-02-08 02:19:00,34.2,28.0,29.93,North,352,1.0,7.0,78,0.00,,,0.00,weatherlink.com 1.10,2013-02-08 07:19:00,
2013-02-08 02:34:00,34.4,28.0,29.93,WNW,290,0.0,4.0,78,0.00,,,0.00,weatherlink.com 1.10,2013-02-08 07:34:00,
2013-02-08 02:49:00,34.3,28.0,29.92,SE,127,2.0,6.0,79,0.00,,,0.00,weatherlink.com 1.10,2013-02-08 07:49:00,
2013-02-08 03:04:00,34.6,29.0,29.91,ENE,65,1.0,12.0,79,0.00,,,0.00,weatherlink.com 1.10,2013-02-08 08:04:00,
2013-02-08 03:19:00,34.7,29.0,29.91,NNE,16,0.0,6.0,80,0.00,,,0.00,weatherlink.com 1.10,2013-02-08 08:19:00,
2013-02-08 03:34:00,34.8,29.0,29.91,NNE,16,0.0,7.0,80,0.00,,,0.00,weatherlink.com 1.10,2013-02-08 08:34:00,
2013-02-08 03:49:00,34.9,30.0,29.90,North,1,1.0,9.0,81,0.00,,,0.00,weatherlink.com 1.10,2013-02-08 08:49:00,
2013-02-08 04:04:00,34.8,30.0,29.89,ESE,118,2.0,7.0,82,0.00,,,0.00,weatherlink.com 1.10,2013-02-08 09:04:00,
2013-02-08 04:19:00,34.9,30.0,29.89,East,101,2.0,6.0,82,0.00,,,0.00,weatherlink.com 1.10,2013-02-08 09:19:00,
2013-02-08 04:34:00,35.2,31.0,29.89,East,93,1.0,7.0,83,0.00,,,0.00,weatherlink.com 1.10,2013-02-08 09:34:00,
2013-02-08 04:49:00,35.4,31.0,29.89,ESE,121,0.0,7.0,83,0.00,,,0.00,weatherlink.com 1.10,2013-02-08 09:49:00,
2013-02-08 05:04:00,35.6,31.0,29.88,East,84,1.0,6.0,83,0.00,,,0.00,weatherlink.com 1.10,2013-02-08 10:04:00,
2013-02-08 05:19:00,35.5,31.0,29.88,SE,127,1.0,5.0,84,0.00,,,0.00,weatherlink.com 1.10,2013-02-08 10:19:00,
2013-02-08 05:34:00,35.5,31.0,29.87,North,5,0.0,7.0,84,0.00,,,0.00,weatherlink.com 1.10,2013-02-08 10:34:00,
2013-02-08 05:49:00,35.3,31.0,29.87,East,82,4.0,8.0,85,0.00,,,0.00,weatherlink.com 1.10,2013-02-08 10:49:00,
2013-02-08 06:04:00,35.1,31.0,29.86,East,99,2.0,6.0,85,0.00,,,0.00,weatherlink.com 1.10,2013-02-08 11:04:00,
2013-02-08 06:19:00,34.9,31.0,29.86,SSE,159,1.0,4.0,85,0.00,,,0.00,weatherlink.com 1.10,2013-02-08 11:19:00,
2013-02-08 06:34:00,34.9,31.0,29.85,North,358,1.0,8.0,85,0.00,,,0.00,weatherlink.com 1.10,2013-02-08 11:34:00,
2013-02-08 06:49:00,34.9,31.0,29.85,ESE,108,0.0,4.0,85,0.00,,,0.00,weatherlink.com 1.10,2013-02-08 11:49:00,
2013-02-08 07:04:00,35.2,31.0,29.84,East,89,4.0,6.0,84,0.00,,,0.00,weatherlink.com 1.10,2013-02-08 12:04:00,
2013-02-08 07:19:00,35.4,31.0,29.84,ENE,61,2.0,6.0,84,0.00,,,0.00,weatherlink.com 1.10,2013-02-08 12:19:00,
2013-02-08 07:34:00,35.5,31.0,29.83,ESE,117,0.0,5.0,83,0.00,,,0.00,weatherlink.com 1.10,2013-02-08 12:34:00,
2013-02-08 07:49:00,35.7,31.0,29.83,WSW,249,1.0,6.0,83,0.00,,,0.00,weatherlink.com 1.10,2013-02-08 12:49:00,
2013-02-08 08:05:00,36.1,31.0,29.83,ESE,112,0.0,4.0,83,0.00,,,0.00,weatherlink.com 1.10,2013-02-08 13:05:00,
2013-02-08 08:19:00,36.7,32.0,29.83,East,85,0.0,5.0,82,0.00,,,0.00,weatherlink.com 1.10,2013-02-08 13:19:00,
2013-02-08 08:34:00,36.9,32.0,29.82,ESE,109,0.0,3.0,82,0.00,,,0.00,weatherlink.com 1.10,2013-02-08 13:34:00,
2013-02-08 08:49:00,37.2,32.0,29.82,ENE,77,0.0,6.0,81,0.00,,,0.00,weatherlink.com 1.10,2013-02-08 13:49:00,
2013-02-08 09:04:00,37.5,32.0,29.81,WNW,286,1.0,4.0,81,0.00,,,0.00,weatherlink.com 1.10,2013-02-08 14:04:00,
2013-02-08 09:20:00,37.9,32.0,29.80,East,98,1.0,5.0,80,0.00,,,0.00,weatherlink.com 1.10,2013-02-08 14:20:00,
2013-02-08 09:35:00,38.5,33.0,29.79,East,97,2.0,5.0,80,0.01,,,0.01,weatherlink.com 1.10,2013-02-08 14:35:00,
2013-02-08 09:50:00,39.2,33.0,29.78,SE,132,1.0,6.0,79,0.01,,,0.01,weatherlink.com 1.10,2013-02-08 14:50:00,
2013-02-08 10:05:00,39.5,34.0,29.77,ESE,108,1.0,3.0,79,0.01,,,0.01,weatherlink.com 1.10,2013-02-08 15:05:00,
2013-02-08 10:20:00,39.5,34.0,29.78,WSW,242,1.0,3.0,81,0.02,,,0.02,weatherlink.com 1.10,2013-02-08 15:20:00,
2013-02-08 10:35:00,38.7,35.0,29.78,WSW,242,0.0,1.0,85,0.04,,,0.05,weatherlink.com 1.10,2013-02-08 15:35:00,
2013-02-08 10:50:00,38.4,35.0,29.79,West,263,0.0,2.0,88,0.06,,,0.07,weatherlink.com 1.10,2013-02-08 15:50:00,
2013-02-08 11:05:00,38.2,35.0,29.79,West,263,0.0,0.0,89,0.08,,,0.09,weatherlink.com 1.10,2013-02-08 16:05:00,
2013-02-08 11:20:00,37.7,35.0,29.78,West,263,0.0,1.0,89,0.08,,,0.10,weatherlink.com 1.10,2013-02-08 16:20:00,
2013-02-08 11:35:00,38.0,36.0,29.79,West,260,0.0,3.0,91,0.07,,,0.12,weatherlink.com 1.10,2013-02-08 16:35:00,
2013-02-08 11:50:00,38.3,36.0,29.78,WNW,289,0.0,4.0,91,0.07,,,0.14,weatherlink.com 1.10,2013-02-08 16:50:00,
2013-02-08 12:05:00,38.6,37.0,29.77,SW,221,0.0,3.0,92,0.07,,,0.16,weatherlink.com 1.10,2013-02-08 17:05:00,
2013-02-08 12:20:00,38.7,37.0,29.77,SW,233,0.0,4.0,92,0.09,,,0.19,weatherlink.com 1.10,2013-02-08 17:20:00,
2013-02-08 12:35:00,38.1,36.0,29.77,SSW,193,2.0,6.0,91,0.10,,,0.22,weatherlink.com 1.10,2013-02-08 17:35:00,
2013-02-08 12:50:00,37.5,35.0,29.77,SW,214,0.0,6.0,91,0.09,,,0.23,weatherlink.com 1.10,2013-02-08 17:50:00,
2013-02-08 13:05:00,37.5,35.0,29.77,WNW,284,0.0,2.0,92,0.08,,,0.24,weatherlink.com 1.10,2013-02-08 18:05:00,
2013-02-08 13:35:00,37.9,36.0,29.76,WSW,253,4.0,5.0,92,0.03,,,0.25,weatherlink.com 1.10,2013-02-08 18:35:00,
2013-02-08 13:50:00,37.8,36.0,29.77,WNW,284,0.0,6.0,92,0.03,,,0.26,weatherlink.com 1.10,2013-02-08 18:50:00,
2013-02-08 14:05:00,37.3,35.0,29.78,WNW,293,5.0,9.0,92,0.02,,,0.26,weatherlink.com 1.10,2013-02-08 19:05:00,
2013-02-08 14:20:00,36.2,34.0,29.78,WNW,288,6.0,11.0,92,0.03,,,0.27,weatherlink.com 1.10,2013-02-08 19:20:00,
2013-02-08 14:35:00,35.4,33.0,29.79,West,281,3.0,13.0,92,0.02,,,0.27,weatherlink.com 1.10,2013-02-08 19:35:00,
2013-02-08 14:50:00,34.2,32.0,29.80,WNW,291,2.0,12.0,92,0.01,,,0.27,weatherlink.com 1.10,2013-02-08 19:50:00,
2013-02-08 15:05:00,33.6,31.0,29.81,WNW,297,9.0,16.0,91,0.01,,,0.27,weatherlink.com 1.10,2013-02-08 20:05:00,
2013-02-08 15:20:00,32.9,31.0,29.82,WNW,302,4.0,12.0,91,0.00,,,0.27,weatherlink.com 1.10,2013-02-08 20:20:00,
2013-02-08 15:35:00,32.5,30.0,29.82,WNW,284,5.0,10.0,90,0.00,,,0.27,weatherlink.com 1.10,2013-02-08 20:35:00,
2013-02-08 15:50:00,32.2,30.0,29.83,WNW,302,7.0,10.0,90,0.00,,,0.27,weatherlink.com 1.10,2013-02-08 20:50:00,
2013-02-08 16:06:00,31.8,29.0,29.83,WNW,297,5.0,11.0,90,0.00,,,0.27,weatherlink.com 1.10,2013-02-08 21:06:00,
2013-02-08 16:20:00,31.3,28.0,29.84,WNW,293,8.0,14.0,88,0.00,,,0.27,weatherlink.com 1.10,2013-02-08 21:20:00,
2013-02-08 16:35:00,30.5,27.0,29.85,WNW,295,6.0,13.0,87,0.00,,,0.27,weatherlink.com 1.10,2013-02-08 21:35:00,
2013-02-08 16:50:00,29.8,26.0,29.86,WNW,288,5.0,14.0,86,0.00,,,0.27,weatherlink.com 1.10,2013-02-08 21:50:00,
2013-02-08 17:05:00,29.2,26.0,29.87,NW,311,5.0,9.0,87,0.00,,,0.27,weatherlink.com 1.10,2013-02-08 22:05:00,
2013-02-08 17:21:00,28.8,25.0,29.88,WNW,298,7.0,14.0,86,0.00,,,0.27,weatherlink.com 1.10,2013-02-08 22:21:00,
2013-02-08 17:36:00,28.5,25.0,29.89,West,278,9.0,10.0,86,0.00,,,0.27,weatherlink.com 1.10,2013-02-08 22:36:00,
2013-02-08 17:50:00,28.3,25.0,29.89,WNW,297,6.0,11.0,86,0.00,,,0.27,weatherlink.com 1.10,2013-02-08 22:50:00,
2013-02-08 18:06:00,28.2,24.0,29.91,WNW,289,5.0,12.0,85,0.00,,,0.27,weatherlink.com 1.10,2013-02-08 23:06:00,
2013-02-08 18:21:00,28.0,24.0,29.92,West,280,5.0,11.0,85,0.00,,,0.27,weatherlink.com 1.10,2013-02-08 23:21:00,
2013-02-08 18:36:00,27.7,24.0,29.93,WNW,292,3.0,12.0,85,0.00,,,0.27,weatherlink.com 1.10,2013-02-08 23:36:00,
2013-02-08 18:51:00,27.1,23.0,29.94,NW,309,0.0,12.0,85,0.00,,,0.27,weatherlink.com 1.10,2013-02-08 23:51:00,
2013-02-08 19:06:00,26.0,22.0,29.95,WNW,283,2.0,17.0,85,0.00,,,0.27,weatherlink.com 1.10,2013-02-09 00:06:00,
2013-02-08 19:21:00,25.5,22.0,29.96,WNW,283,0.0,10.0,85,0.00,,,0.27,weatherlink.com 1.10,2013-02-09 00:21:00,
2013-02-08 19:36:00,25.2,21.0,29.97,WNW,296,5.0,10.0,85,0.00,,,0.27,weatherlink.com 1.10,2013-02-09 00:36:00,
2013-02-08 19:51:00,25.0,21.0,29.98,WNW,287,6.0,11.0,85,0.00,,,0.27,weatherlink.com 1.10,2013-02-09 00:51:00,
2013-02-08 20:06:00,24.8,21.0,29.98,WNW,290,2.0,10.0,85,0.00,,,0.27,weatherlink.com 1.10,2013-02-09 01:06:00,
2013-02-08 20:21:00,24.7,21.0,29.99,WNW,288,7.0,10.0,84,0.00,,,0.27,weatherlink.com 1.10,2013-02-09 01:21:00,
2013-02-08 20:36:00,24.4,20.0,29.99,WNW,290,5.0,13.0,84,0.00,,,0.27,weatherlink.com 1.10,2013-02-09 01:36:00,
2013-02-08 20:51:00,24.5,21.0,30.00,WNW,293,8.0,13.0,85,0.00,,,0.27,weatherlink.com 1.10,2013-02-09 01:51:00,
2013-02-08 21:06:00,24.2,20.0,30.01,NW,319,7.0,16.0,84,0.00,,,0.27,weatherlink.com 1.10,2013-02-09 02:06:00,
2013-02-08 21:21:00,24.1,20.0,30.02,WNW,289,5.0,12.0,85,0.00,,,0.27,weatherlink.com 1.10,2013-02-09 02:21:00,
2013-02-08 21:36:00,24.0,20.0,30.03,WNW,300,8.0,11.0,86,0.00,,,0.27,weatherlink.com 1.10,2013-02-09 02:36:00,
2013-02-08 21:51:00,24.0,20.0,30.04,WNW,291,6.0,10.0,86,0.00,,,0.27,weatherlink.com 1.10,2013-02-09 02:51:00,
2013-02-08 22:06:00,23.9,21.0,30.04,WNW,285,8.0,11.0,87,0.00,,,0.27,weatherlink.com 1.10,2013-02-09 03:06:00,
2013-02-08 22:21:00,23.8,21.0,30.04,WNW,299,3.0,10.0,87,0.00,,,0.27,weatherlink.com 1.10,2013-02-09 03:21:00,
2013-02-08 22:36:00,23.8,21.0,30.05,WNW,288,5.0,10.0,87,0.00,,,0.27,weatherlink.com 1.10,2013-02-09 03:36:00,
2013-02-08 22:51:00,23.9,21.0,30.05,WNW,288,8.0,11.0,87,0.00,,,0.27,weatherlink.com 1.10,2013-02-09 03:51:00,
2013-02-08 23:06:00,23.9,20.0,30.05,WNW,295,9.0,9.0,86,0.00,,,0.27,weatherlink.com 1.10,2013-02-09 04:06:00,
2013-02-08 23:21:00,23.8,20.0,30.06,West,277,8.0,12.0,86,0.00,,,0.27,weatherlink.com 1.10,2013-02-09 04:21:00,
2013-02-08 23:36:00,23.7,20.0,30.06,WNW,291,9.0,13.0,84,0.00,,,0.27,weatherlink.com 1.10,2013-02-09 04:36:00,
2013-02-08 23:51:00,23.8,20.0,30.07,WNW,283,3.0,10.0,85,0.00,,,0.27,weatherlink.com 1.10,2013-02-09 04:51:00,